Airfield :
LOGIN :

Register | Disclaimer

   EN    FR    IT 

 










Legend :    VFR   Marginal VFR   IFR   Intensive IFR   Very Intensive IFR
Visi :
Ceiling :
>= 8 km
>= 3000ft
5 to 8 km
1000 to 3000 ft
1500m to 5 km
500 to 1000 ft
800 to 1500m
200 to 500 ft
< 800m
< 200 ft
Symbols :   Thunderstorms  Fog  Heavy snow  Heavy precipitations  Wind > 20 kt
SIGMETs :     Misc.  Thunderstorms  Icing  Turbulence  Mountain Waves  Volcanic Ashes







- Airport Elevation : 741 ft
- IATA code : PED


LKPD - Pardubice AB

CURRENT METAR :
  • 232100Z 13017G27KT 9999 OVC021 11/06 Q1010

EXPIRED METARs :
  • 232000Z 13015G26KT 9999 OVC020 11/07 Q1010 NOSIG
  • 231900Z 13014G28KT 9999 OVC024 11/06 Q1010 NOSIG

TAF TAF LKPD
Valid from the 23 at 18:00 until the 24 at 18:00 UTC


231700Z 2318/2418 14016KT 9999 BKN040
TEMPO 2318/2410 RA BKN022
PROB40
TEMPO 2318/2402 13020G36KT
BECMG 2410/2412 CAVOK
No reported NOTAMs for that airfield.



MET'MAP, your aeronautical weather chart ! - Copyright ORBIFLY December 2007 - Disclaimer

ORBIFLY MET'MAP TEAM :

Programming & Development : Alexandra Zaïnal
Concept & Development : Baudouin d'Aumeries
Co-Development & Prog : Marc-Olivier Méhu
Technical & hardware support : Manuel Goepfert

Contact : metmap@orbifly.com




SOURCES & CREDITS :

   NOAA